Location: Ku?niki
(51.4449°N, 17.8974°E)
Time: 11:31:03
(UTC+00:00)

Cosmos 909 Rocket - Pass Details

Date: 18 September 2020
Orbit: 991 x 2088 km, 65.9° (Epoch: 30 October)

Event Time Altitude Azimuth Distance (km) Brightness Sun altitude
Rises 19:39:16 0° 317° (NW) 4,058 8.6 -24.5°
Reaches altitude 10° 19:42:12 10° 322° (NW) 2,981 7.5 -24.9°
Maximum altitude 19:48:51 54° 40° (NE) 1,214 4.4 -25.7°
Enters shadow 19:50:08 47° 79° (E) 1,310 4.3 -25.8°
